Weather in Ruciane-Nida

Poland     53°38′58″N   21°33′48″E
temp.,
°C
wind,
m/s
gust,
m/s
humid.,
%
clouds,
%
prec.,
mm/h
press.,
hPa
HPBL,
m
30 june, thu
thu3023:00+17nnw229525 0.0 101723
02:00+16nne22967 0.0 101719
05:00+17n2397100 0.0 101684
08:00+21ne3481100 0.0 1017396
11:00+26e347058 0.1 1016822
14:00+30se565224 0.1 10151495
17:00+30se565122 0.0 10141743
20:00+26ese49703 0.0 1013314
1 july, fri
fri123:00+23se51378100 0.0 1014371
02:00+20se3109484 1.6 1016262
05:00+19se4109416 2.1 1015244
08:00+24se497857 2.1 1015360
11:00+30sse68510 0.0 10151227
14:00+31se67435 0.0 10151692
17:00+30se68460 0.0 10141416
20:00+26se512608 0.0 1014558
2 july, sat
sat223:00+22sse41076100 0.3 1016300
02:00+19se259576 2.3 1016113
05:00+19ssw279774 0.0 1017192
08:00+21wnw4689100 0.1 1018694
11:00+17nw5996100 0.5 1021508
14:00+17nw5893100 1.7 1022649
17:00+19nw5774100 0.3 10221020
20:00+17nw497177 0.3 1022522
3 july, sun
sun323:00+13nw35900 0.0 1023107
02:00+12nw35960 0.0 1023111
05:00+11nw25950 0.0 102392
08:00+18nw35700 0.0 1022485
11:00+22nnw33540 0.0 10211165
14:00+24n33490 0.0 10201719
17:00+24n32484 0.0 10201750
20:00+20n34740 0.0 101980
4 july, mon
mon423:00+16ne22890 0.0 102037
02:00+14se22930 0.0 101911
05:00+14s22930 0.0 101924
08:00+21ssw24630 0.0 1018381
11:00+26sw33420 0.0 10181497
14:00+28ssw353765 0.0 10172523
17:00+27wsw24430 0.0 10171682
20:00+19nnw378430 0.6 1018192